• Em Portugal
  • Lista de países
  • Para 7 dias
  • Temperatura da água
  • Mapas de satélite
  • Mapa do tempo
  • Widgets de tempo
  • user-avatar
    Iniciar Sessão

    Previsão horária em Tilevichi

    Hoje, 20 Setembro, Quinta-feira

    Tempo Temperatura Precipitação Vento Pressão Humidade
    00:00 +16°C° 0 mm 3 m/s 746 mmHg 92%
    01:00 +16°C° 0 mm 3 m/s 746 mmHg 93%
    02:00 +16°C° 0 mm 3 m/s 746 mmHg 94%
    03:00 +16°C° 0 mm 3 m/s 747 mmHg 95%
    04:00 +14°C° 0 mm 3 m/s 747 mmHg 95%
    05:00 +15°C° 0 mm 2 m/s 747 mmHg 96%
    06:00 +16°C° 0 mm 3 m/s 747 mmHg 93%
    07:00 +17°C° 0 mm 3 m/s 747 mmHg 90%
    08:00 +17°C° 0 mm 3 m/s 748 mmHg 88%
    09:00 +19°C° 0 mm 3 m/s 748 mmHg 80%
    10:00 +20°C° 0 mm 3 m/s 748 mmHg 73%
    11:00 +22°C° 0 mm 3 m/s 748 mmHg 65%
    12:00 +22°C° 0 mm 3 m/s 748 mmHg 62%
    13:00 +24°C° 0 mm 3 m/s 748 mmHg 59%
    14:00 +25°C° 0 mm 3 m/s 748 mmHg 56%
    15:00 +24°C° 0 mm 3 m/s 748 mmHg 60%
    16:00 +23°C° 0 mm 2 m/s 748 mmHg 64%
    17:00 +21°C° 0 mm 2 m/s 748 mmHg 69%
    18:00 +21°C° 0 mm 1 m/s 748 mmHg 72%
    19:00 +19°C° 0 mm 1 m/s 748 mmHg 75%
    20:00 +18°C° 0 mm 1 m/s 748 mmHg 79%
    21:00 +18°C° 0 mm 1 m/s 748 mmHg 80%
    22:00 +18°C° 0 mm 1 m/s 748 mmHg 81%
    23:00 +16°C° 0 mm 1 m/s 748 mmHg 82%

    Amanhã, 21 Setembro, Sexta-feira

    Tempo Temperatura Precipitação Vento Pressão Humidade
    00:00 +16°C° 0 mm 1 m/s 748 mmHg 84%
    01:00 +16°C° 0 mm 1 m/s 748 mmHg 86%
    02:00 +16°C° 0 mm 1 m/s 748 mmHg 88%
    03:00 +16°C° 0 mm 1 m/s 748 mmHg 90%
    04:00 +16°C° 0 mm 1 m/s 748 mmHg 91%
    05:00 +16°C° 0 mm 1 m/s 749 mmHg 92%
    06:00 +18°C° 0 mm 1 m/s 749 mmHg 90%
    07:00 +18°C° 0 mm 2 m/s 749 mmHg 87%
    08:00 +19°C° 0 mm 2 m/s 749 mmHg 85%
    09:00 +20°C° 0 mm 2 m/s 749 mmHg 80%
    10:00 +23°C° 0 mm 2 m/s 749 mmHg 74%
    11:00 +25°C° 0 mm 3 m/s 749 mmHg 68%
    12:00 +25°C° 0 mm 3 m/s 749 mmHg 66%
    13:00 +26°C° 0 mm 3 m/s 748 mmHg 63%
    14:00 +26°C° 0 mm 3 m/s 748 mmHg 60%
    15:00 +26°C° 0 mm 3 m/s 748 mmHg 64%
    16:00 +25°C° 0 mm 3 m/s 747 mmHg 68%
    17:00 +24°C° 0 mm 2 m/s 747 mmHg 71%
    18:00 +22°C° 0 mm 3 m/s 747 mmHg 74%
    19:00 +20°C° 0 mm 3 m/s 747 mmHg 77%
    20:00 +19°C° 0 mm 3 m/s 747 mmHg 80%
    21:00 +18°C° 0 mm 4 m/s 746 mmHg 80%
    22:00 +18°C° 0 mm 4 m/s 746 mmHg 81%
    23:00 +18°C° 0 mm 4 m/s 746 mmHg 82%

    Depois de amanhã, 22 Setembro, Sábado

    Tempo Temperatura Precipitação Vento Pressão Humidade
    00:00 +17°C° 0 mm 4 m/s 746 mmHg 82%
    01:00 +17°C° 0 mm 4 m/s 745 mmHg 81%
    02:00 +17°C° 0 mm 4 m/s 745 mmHg 81%
    03:00 +16°C° 0 mm 5 m/s 744 mmHg 80%
    04:00 +16°C° 0 mm 5 m/s 744 mmHg 79%
    05:00 +15°C° 0 mm 5 m/s 743 mmHg 78%
    06:00 +16°C° 0 mm 6 m/s 743 mmHg 76%
    07:00 +17°C° 0 mm 6 m/s 743 mmHg 74%
    08:00 +17°C° 0 mm 6 m/s 743 mmHg 73%
    09:00 +19°C° 0 mm 6 m/s 743 mmHg 70%
    10:00 +20°C° 0 mm 6 m/s 743 mmHg 67%
    11:00 +21°C° 0 mm 6 m/s 743 mmHg 64%
    12:00 +20°C° 0.8 mm 6 m/s 743 mmHg 70%
    13:00 +17°C° 0.8 mm 5 m/s 743 mmHg 76%
    14:00 +16°C° 0.8 mm 5 m/s 743 mmHg 81%
    15:00 +15°C° 1.3 mm 4 m/s 743 mmHg 84%
    16:00 +14°C° 1.3 mm 4 m/s 743 mmHg 86%
    17:00 +12°C° 1.3 mm 3 m/s 743 mmHg 89%
    18:00 +12°C° 0.6 mm 3 m/s 744 mmHg 89%
    19:00 +12°C° 0.6 mm 4 m/s 744 mmHg 89%
    20:00 +11°C° 0.6 mm 4 m/s 744 mmHg 89%
    21:00 +11°C° 0.9 mm 4 m/s 744 mmHg 89%
    22:00 +10°C° 0.9 mm 4 m/s 744 mmHg 90%
    23:00 +10°C° 0.9 mm 4 m/s 744 mmHg 90%

    23 Setembro, Domingo

    Tempo Temperatura Precipitação Vento Pressão Humidade
    00:00 +10°C° 0.2 mm 3 m/s 744 mmHg 91%
    01:00 +9°C° 0.2 mm 3 m/s 744 mmHg 92%
    02:00 +9°C° 0.2 mm 3 m/s 743 mmHg 92%
    03:00 +9°C° 0.1 mm 3 m/s 743 mmHg 93%
    04:00 +8°C° 0.1 mm 3 m/s 743 mmHg 94%
    05:00 +8°C° 0.1 mm 3 m/s 743 mmHg 95%
    06:00 +8°C° 0 mm 3 m/s 743 mmHg 93%
    07:00 +9°C° 0 mm 3 m/s 742 mmHg 90%
    08:00 +8°C° 0 mm 4 m/s 742 mmHg 88%
    09:00 +11°C° 0 mm 4 m/s 742 mmHg 82%
    10:00 +12°C° 0 mm 5 m/s 742 mmHg 76%
    11:00 +13°C° 0 mm 6 m/s 742 mmHg 70%
    12:00 +14°C° 0.2 mm 6 m/s 742 mmHg 67%
    13:00 +14°C° 0.2 mm 6 m/s 742 mmHg 65%
    14:00 +14°C° 0.2 mm 7 m/s 742 mmHg 63%
    15:00 +13°C° 0.1 mm 6 m/s 742 mmHg 66%
    16:00 +13°C° 0.1 mm 5 m/s 742 mmHg 70%
    17:00 +12°C° 0.1 mm 4 m/s 742 mmHg 74%
    18:00 +11°C° 0 mm 4 m/s 742 mmHg 76%
    19:00 +10°C° 0 mm 4 m/s 742 mmHg 79%
    20:00 +9°C° 0 mm 3 m/s 742 mmHg 82%
    21:00 +8°C° 0 mm 3 m/s 742 mmHg 83%
    22:00 +8°C° 0 mm 3 m/s 742 mmHg 84%
    23:00 +8°C° 0 mm 3 m/s 742 mmHg 85%

    24 Setembro, Segunda-feira

    Tempo Temperatura Precipitação Vento Pressão Humidade
    00:00 +7°C° 0 mm 3 m/s 742 mmHg 86%
    01:00 +7°C° 0 mm 3 m/s 742 mmHg 87%
    02:00 +7°C° 0 mm 3 m/s 742 mmHg 89%
    03:00 +5°C° 0 mm 3 m/s 741 mmHg 88%
    04:00 +5°C° 0 mm 3 m/s 741 mmHg 87%
    05:00 +5°C° 0 mm 3 m/s 741 mmHg 86%
    06:00 +7°C° 0 mm 3 m/s 740 mmHg 82%
    07:00 +7°C° 0 mm 4 m/s 740 mmHg 78%
    08:00 +8°C° 0 mm 4 m/s 739 mmHg 74%
    09:00 +8°C° 0.5 mm 5 m/s 739 mmHg 77%
    10:00 +8°C° 0.5 mm 5 m/s 738 mmHg 80%
    11:00 +8°C° 0.5 mm 5 m/s 738 mmHg 83%
    12:00 +8°C° 1 mm 7 m/s 736 mmHg 85%
    13:00 +7°C° 1 mm 8 m/s 735 mmHg 86%
    14:00 +7°C° 1 mm 10 m/s 733 mmHg 87%
    15:00 +7°C° 2.6 mm 9 m/s 732 mmHg 88%
    16:00 +8°C° 2.6 mm 9 m/s 730 mmHg 89%
    17:00 +9°C° 2.6 mm 8 m/s 729 mmHg 90%
    18:00 +10°C° 1.3 mm 8 m/s 728 mmHg 92%
    19:00 +10°C° 1.3 mm 7 m/s 727 mmHg 93%
    20:00 +11°C° 1.3 mm 6 m/s 725 mmHg 94%
    21:00 +11°C° 0.3 mm 6 m/s 724 mmHg 93%
    22:00 +11°C° 0.3 mm 7 m/s 724 mmHg 92%
    23:00 +11°C° 0.3 mm 7 m/s 723 mmHg 91%

    25 Setembro, Terça-feira

    Tempo Temperatura Precipitação Vento Pressão Humidade
    00:00 +10°C° 0.1 mm 7 m/s 723 mmHg 90%
    01:00 +9°C° 0.1 mm 7 m/s 722 mmHg 90%
    02:00 +9°C° 0.1 mm 7 m/s 722 mmHg 89%
    03:00 +9°C° 0.3 mm 7 m/s 722 mmHg 90%
    04:00 +8°C° 0.3 mm 6 m/s 722 mmHg 91%
    05:00 +8°C° 0.3 mm 6 m/s 722 mmHg 93%
    06:00 +8°C° 0.5 mm 7 m/s 723 mmHg 91%
    07:00 +8°C° 0.5 mm 7 m/s 723 mmHg 90%
    08:00 +6°C° 0.5 mm 7 m/s 724 mmHg 89%
    09:00 +6°C° 0.2 mm 8 m/s 725 mmHg 88%
    10:00 +6°C° 0.2 mm 8 m/s 726 mmHg 86%
    11:00 +6°C° 0.2 mm 8 m/s 727 mmHg 85%
    12:00 +6°C° 0.3 mm 9 m/s 728 mmHg 85%
    13:00 +6°C° 0.3 mm 9 m/s 729 mmHg 84%
    14:00 +6°C° 0.3 mm 10 m/s 731 mmHg 84%
    15:00 +6°C° 0.2 mm 10 m/s 732 mmHg 84%
    16:00 +5°C° 0.2 mm 10 m/s 733 mmHg 83%
    17:00 +5°C° 0.2 mm 10 m/s 734 mmHg 83%
    18:00 +5°C° 0.1 mm 9 m/s 735 mmHg 83%
    19:00 +3°C° 0.1 mm 9 m/s 735 mmHg 82%
    20:00 +3°C° 0.1 mm 9 m/s 736 mmHg 82%
    21:00 +2°C° 0 mm 8 m/s 737 mmHg 81%
    22:00 +3°C° 0 mm 7 m/s 738 mmHg 81%
    23:00 +2°C° 0 mm 7 m/s 738 mmHg 80%
    Mostrar mais